Find Starlink 31479

NORAD ID: 59316 Int'l Des: 2024-056 Owner: SPXS Country: US Constellation: starlink operational
LEOCIRCULAR

現在のビュー

3D地球を読み込み中...

About Starlink 31479

Starlink 31479 (NORAD 59316) is a starlink constellation satellite (v2 mini) launched Mar 24, 2024 by SPXS of US. It operates in LEO, CIRCULAR orbit with a mass of 730.00 kg.

Starlink 31479について

説明を読み込み中...

次回通過

Passes for default location (London). Set your location on the main map for personalized predictions.

高度履歴

Loading altitude history...

軌道要素

1 59316U 24056W 26177.79632925 -.00003954 00000-0 -13421-3 0 9994
2 59316 43.0032 338.6061 0001330 274.6366 85.4334 15.27584910127791
Epoch: Jun 26, 2026 • Age: 20 hours

現在のステータス

高度 495.4 km
速度 7.62 km/s
衛星直下点 -42.99°S, 107.23°E
打ち上げ日 Mar 24, 2024
運用期間 2.2 years
タイプ internet

技術仕様

分類 Payload
質量 730.00 kg
乾燥質量 700.00 kg
総質量 730.00 kg
長さ 0.30 m
直径 4.10 m
スパン 29.00 m
形状 Box + pan
製造者 SPXS
バスタイプ Starlink V2M
フェーズステータス In Orbit
所有者/国 SPXS/US

Most Searched